Weather History for Kill Devil Hills, NC

Change the Weather History Date:

Monday, December 3, 2012

  Actual Average (KMQI) Record (KMQI)
Temperature  
Mean Temperature 58 °F -  
Max Temperature 64 °F 56 °F 72 °F (1991)
Min Temperature 51 °F 43 °F 30 °F (1976)
Degree Days  
Heating Degree Days 8    
Growing Degree Days 8 (Base 50)    
Moisture  
Dew Point 52 °F    
Average Humidity 81    
Maximum Humidity 91    
Minimum Humidity 68    
Precipitation  
Precipitation 0.00 in - - ()
Sea Level Pressure  
Sea Level Pressure 30.25 in    
Wind  
Wind Speed 5 mph (SW)    
Max Wind Speed 9 mph    
Max Gust Speed -    
Visibility 10 miles    
Events      
Averages and records for this station are not official NWS values.
T = Trace of Precipitation, MM = Missing Value Source: NWS Daily Summary

Daily Weather History Graph

Daily Weather History Graph

Search for Another Location

Airport:

Trip Planner

Search our weather history database for the weather conditions in past years. The results will help you decide how hot, cold, wet, or windy it might be!

Date:

Astronomy

Dec. 03, 2012 Rise Set
Actual Time 6:57 AM EST 4:48 PM EST
Civil Twilight 6:28 AM EST 5:16 PM EST
Nautical Twilight 5:56 AM EST 5:48 PM EST
Astronomical Twilight 5:25 AM EST 6:19 PM EST
Moon 9:27 PM EST (12/3) 10:23 AM EST (12/3)
Length of Visible Light 10h 47m
Length of Day
9h 51m
Waning Gibbous, 78% of the Moon is Illuminated
Dec 3
Waning Gibbous
Dec 6
Last Quarter
Dec 13
New
Dec 20
First Quarter
Dec 28
Full

Hourly Weather History & Observations

Time (EST) Temp. Dew Point Humidity Pressure Visibility Wind Dir Wind Speed Gust Speed Precip Events Conditions
12:15 AM 51.4 °F 45.7 °F 81% 30.25 in 10.0 mi SSW 5.8 mph - N/A   Clear
12:35 AM 51.8 °F 46.0 °F 81% 30.25 in 10.0 mi SSW 4.6 mph - N/A   Clear
12:55 AM 52.2 °F 46.4 °F 81% 30.25 in 10.0 mi South 4.6 mph - N/A   Mostly Cloudy
1:35 AM 52.7 °F 46.9 °F 81% 30.25 in 10.0 mi SSW 5.8 mph - N/A   Overcast
1:55 AM 52.7 °F 46.9 °F 81% 30.25 in 10.0 mi SSW 5.8 mph - N/A   Overcast
2:15 AM 52.7 °F 46.9 °F 81% 30.25 in 10.0 mi SSW 5.8 mph - N/A   Overcast
2:35 AM 53.2 °F 47.3 °F 80% 30.24 in 10.0 mi SW 6.9 mph - N/A   Overcast
2:55 AM 54.5 °F 48.2 °F 79% 30.24 in 10.0 mi SW 8.1 mph - N/A   Overcast
3:15 AM 55.2 °F 48.7 °F 79% 30.25 in 10.0 mi SW 6.9 mph - N/A   Overcast
3:35 AM 55.4 °F 49.3 °F 80% 30.24 in 10.0 mi SW 4.6 mph - N/A   Overcast
3:55 AM 56.1 °F 50.2 °F 80% 30.24 in 10.0 mi WSW 4.6 mph - N/A   Mostly Cloudy
4:15 AM 57.0 °F 50.9 °F 80% 30.25 in 10.0 mi WSW 9.2 mph - N/A   Mostly Cloudy
4:35 AM 57.6 °F 50.9 °F 78% 30.25 in 10.0 mi West 6.9 mph - N/A   Mostly Cloudy
4:55 AM 57.0 °F 50.9 °F 80% 30.25 in 10.0 mi WSW 4.6 mph - N/A   Overcast
5:15 AM 56.8 °F 50.9 °F 80% 30.24 in 10.0 mi WSW 6.9 mph - N/A   Overcast
5:35 AM 57.0 °F 51.1 °F 81% 30.24 in 10.0 mi SW 8.1 mph - N/A   Mostly Cloudy
5:55 AM 56.8 °F 51.3 °F 82% 30.24 in 10.0 mi WSW 6.9 mph - N/A   Scattered Clouds
6:15 AM 57.0 °F 51.6 °F 82% 30.24 in 10.0 mi WSW 8.1 mph - N/A   Mostly Cloudy
6:35 AM 57.0 °F 51.8 °F 83% 30.24 in 10.0 mi SW 4.6 mph - N/A   Mostly Cloudy
6:55 AM 56.3 °F 51.8 °F 85% 30.24 in 10.0 mi SW 5.8 mph - N/A   Mostly Cloudy
7:15 AM 55.8 °F 51.8 °F 87% 30.24 in 10.0 mi SW 5.8 mph - N/A   Overcast
7:35 AM 55.6 °F 51.8 °F 87% 30.25 in 10.0 mi SW 8.1 mph - N/A   Scattered Clouds
7:55 AM 56.1 °F 52.3 °F 87% 30.25 in 10.0 mi WSW 5.8 mph - N/A   Clear
8:15 AM 56.8 °F 52.9 °F 87% 30.26 in 10.0 mi WSW 6.9 mph - N/A   Clear
8:35 AM 57.9 °F 53.4 °F 85% 30.27 in 10.0 mi WSW 6.9 mph - N/A   Clear
8:55 AM 59.0 °F 53.8 °F 83% 30.27 in 10.0 mi WSW 8.1 mph - N/A   Mostly Cloudy
9:15 AM 58.8 °F 53.8 °F 83% 30.28 in 10.0 mi West 6.9 mph - N/A   Overcast
9:35 AM 58.6 °F 53.8 °F 84% 30.28 in 10.0 mi WSW 8.1 mph - N/A   Overcast
10:15 AM 59.7 °F 54.1 °F 82% 30.28 in 10.0 mi West 6.9 mph - N/A   Scattered Clouds
10:35 AM 61.9 °F 54.5 °F 77% 30.28 in 10.0 mi West 8.1 mph - N/A   Scattered Clouds
10:55 AM 61.2 °F 54.0 °F 77% 30.27 in 10.0 mi West 5.8 mph - N/A   Mostly Cloudy
11:15 AM 59.9 °F 53.6 °F 80% 30.27 in 10.0 mi West 5.8 mph - N/A   Mostly Cloudy
11:35 AM 59.9 °F 53.6 °F 80% 30.26 in 10.0 mi West 6.9 mph - N/A   Mostly Cloudy
11:55 AM 60.8 °F 54.0 °F 78% 30.25 in 10.0 mi West 5.8 mph - N/A   Mostly Cloudy
12:15 PM 62.1 °F 54.1 °F 75% 30.24 in 10.0 mi West 5.8 mph - N/A   Scattered Clouds
12:35 PM 64.2 °F 54.5 °F 71% 30.23 in 10.0 mi West 4.6 mph - N/A   Clear
12:55 PM 63.9 °F 54.1 °F 71% 30.23 in 10.0 mi WNW 6.9 mph - N/A   Clear
1:15 PM 63.9 °F 54.0 °F 70% 30.23 in 10.0 mi West 6.9 mph - N/A   Clear
1:35 PM 64.0 °F 54.0 °F 70% 30.22 in 10.0 mi WNW 4.6 mph - N/A   Clear
1:55 PM 64.4 °F 54.0 °F 69% 30.22 in 10.0 mi WNW 6.9 mph - N/A   Clear
2:15 PM 64.2 °F 54.0 °F 69% 30.21 in 10.0 mi WNW 4.6 mph - N/A   Clear
2:35 PM 64.2 °F 53.8 °F 69% 30.22 in 10.0 mi WNW 4.6 mph - N/A   Clear
2:55 PM 64.2 °F 53.6 °F 68% 30.22 in 10.0 mi West 3.5 mph - N/A   Clear
3:15 PM 64.6 °F 53.6 °F 68% 30.22 in 10.0 mi Calm Calm - N/A   Clear
3:35 PM 64.0 °F 53.6 °F 69% 30.22 in 10.0 mi Calm Calm - N/A   Clear
3:55 PM 63.7 °F 53.8 °F 70% 30.22 in 10.0 mi Calm Calm - N/A   Clear
4:15 PM 63.1 °F 54.3 °F 73% 30.22 in 10.0 mi Calm Calm - N/A   Clear
4:35 PM 61.7 °F 54.5 °F 77% 30.23 in 10.0 mi Calm Calm - N/A   Clear
4:55 PM 59.7 °F 52.5 °F 77% 30.23 in 10.0 mi Calm Calm - N/A   Clear
5:15 PM 57.9 °F 52.0 °F 81% 30.23 in 10.0 mi Calm Calm - N/A   Clear
5:35 PM 57.4 °F 51.8 °F 82% 30.24 in 10.0 mi Calm Calm - N/A   Clear
5:55 PM 56.7 °F 51.4 °F 83% 30.25 in 10.0 mi Calm Calm - N/A   Clear
6:15 PM 55.9 °F 51.4 °F 85% 30.25 in 10.0 mi Calm Calm - N/A   Clear
6:35 PM 56.5 °F 51.6 °F 84% 30.26 in 10.0 mi Calm Calm - N/A   Clear
6:55 PM 56.3 °F 51.6 °F 84% 30.26 in 10.0 mi Calm Calm - N/A   Clear
7:15 PM 55.9 °F 51.6 °F 85% 30.26 in 10.0 mi Calm Calm - N/A   Clear
7:35 PM 55.8 °F 51.6 °F 86% 30.26 in 10.0 mi SE 3.5 mph - N/A   Clear
7:55 PM 55.6 °F 51.6 °F 87% 30.26 in 10.0 mi SE 3.5 mph - N/A   Clear
8:15 PM 55.8 °F 51.6 °F 86% 30.26 in 10.0 mi ESE 4.6 mph - N/A   Clear
8:35 PM 56.1 °F 51.6 °F 85% 30.26 in 10.0 mi ESE 3.5 mph - N/A   Clear
8:55 PM 55.9 °F 51.8 °F 86% 30.26 in 7.0 mi ESE 3.5 mph - N/A   Clear
9:15 PM 55.8 °F 51.8 °F 87% 30.27 in 7.0 mi ESE 3.5 mph - N/A   Clear
9:35 PM 55.6 °F 51.8 °F 87% 30.27 in 7.0 mi ESE 3.5 mph - N/A   Clear
9:55 PM 54.7 °F 51.6 °F 89% 30.27 in 7.0 mi SE 4.6 mph - N/A   Clear
10:15 PM 54.5 °F 51.6 °F 90% 30.28 in 7.0 mi SE 3.5 mph - N/A   Clear
10:35 PM 54.5 °F 51.8 °F 91% 30.28 in 10.0 mi SE 3.5 mph - N/A   Clear
10:55 PM 54.5 °F 51.8 °F 91% 30.28 in 10.0 mi ESE 4.6 mph - N/A   Clear
11:15 PM 54.5 °F 51.8 °F 91% 30.28 in 10.0 mi ESE 4.6 mph - N/A   Clear
11:35 PM 54.7 °F 52.0 °F 91% 30.28 in 10.0 mi SE 3.5 mph - N/A   Clear
11:55 PM 54.9 °F 52.2 °F 91% 30.27 in 10.0 mi SSE 3.5 mph - N/A   Clear